www.pogodaiklimat.ru

Погода и климат >> Архив погоды >> Антарктида >> Casey


ПОГОДА в Casey

  • Прогноз погоды в Casey
  • Монитор погоды в Casey
  • Климат города

АРХИВ ПОГОДЫ в Casey

Время (UTC), дата Ветер
(напр.,м/с)
 
Видим.   Явления Облачность Т
(С)
Тd
(С)
f
(%)
Тe
(С)
Тes
(С)
Комфортность P
(гПа)
Po
(гПа)
Тmin
(С)
Tmax
(С)
R
(мм)
R24
(мм)
S
(см)
03 16.07 В 5 30 км 1/1 1500 м
[Sc Ac trans Ci fib]
-7.3 -17.4 44 -14 -14 984.3 978.8 -10.2
06 16.07 Ю 5 30 км 1/1 300 м
[Sc Ac trans Ci fib]
-10.7 -16.9 60 -19 -19 982.4 976.9
09 16.07 ЮВ 5 30 км 1/1 300 м
[Sc Ci fib]
-11.5 -17.5 61 -19 -19 979.3 973.8
15 16.07 В 5 30 км 3/1 600 м
[Sc Ac trans Ci fib]
-10.5 -19.4 48 -18 -18 973.2 967.8 -4.4
18 16.07 СЗ 2 н/о н/о -9.4 -17.0 54 -13 -13 972.0 966.6
21 16.07 С 2 н/о н/о -10.4 -15.7 65 -15 -15 970.7 965.3
00 17.07 В 11 27 км 9/5 300 м
[Sc Ac trans]
-8.8 -14.9 61 -19 -19 972.0 966.6
03 17.07 В 15 27 км 9/9 300 м
[Cu Sc Ac trans]
-7.4 -13.6 61 -19 -19 973.6 968.2 -12.7
06 17.07 Ю 3 22 км 10/10 600 м
[Sc As op]
-6.4 -13.3 58 -12 -12 976.8 971.4
09 17.07 Ю 2 2200 м слабый снег 10/10 600 м
[Sc]
-6.6 -10.3 75 -11 -11 979.7 974.2
12 17.07 Ю 3 16 км слабый снег 10/10 600 м
[Sc]
-7.8 -11.1 77 -13 -13 981.3 975.8
15 17.07 Ю 5 1800 м слабый снег 10/10 600 м
[Sc]
-7.8 -10.5 81 -15 -15 982.3 976.8 -4.9
18 17.07 Ю 3 н/о н/о -7.0 -8.6 88 -12 -12 983.0 977.5
21 17.07 ЮВ 3 н/о н/о -7.2 -8.7 89 -12 -12 983.8 978.3
00 18.07 С 3 20 км слабый снег 10/10 1000 м
[Sc]
-5.6 -9.0 77 -11 -11 985.4 979.9
03 18.07 Ю 3 3000 м слабый снег 10/10 600 м
[Sc]
-6.1 -7.3 91 -12 -12 987.0 981.5 -8.8
06 18.07 Ю 4 2000 м слабый снег 10/10 600 м
[Sc]
-4.6 -5.8 91 -11 -11 988.1 982.6
09 18.07 З 3 10 км слабый снег 10/10 600 м
[Sc]
-4.1 -6.1 86 -10 -10 989.2 983.7
12 18.07 СВ 5 15 км слабый снег 10/10 1500 м
[Sc]
-3.3 -8.0 70 -10 -10 989.9 984.4
15 18.07 СВ 2 1000 м снег 10/10 300 м
[Sc]
-4.6 -5.7 92 -9 -9 990.7 985.2 -2.5
18 18.07 СВ 4 н/о н/о -5.1 -7.8 81 -11 -11 989.8 984.3
21 18.07 Ю 3 н/о н/о -6.2 -7.3 92 -11 -11 989.1 983.6
00 19.07 СВ 4 20 км 10/10 1500 м
[Sc]
-6.3 -8.7 83 -13 -13 988.4 982.9
03 19.07 СВ 1 25 км 10/10 600 м
[Sc]
-5.9 -10.8 68 -6 -6 987.4 981.9 -6.7
06 19.07 СВ 3 7000 м слабый снег 10/10 600 м
[Sc]
-5.6 -10.9 66 -10 -10 986.0 980.5
09 19.07 ЮВ 4 7000 м слабый снег 10/10 600 м
[Sc]
-6.5 -10.7 72 -13 -13 984.9 979.4
12 19.07 ЮЗ 6 5000 м слабый снег 10/10 600 м
[Sc]
-6.7 -9.6 80 -15 -15 983.6 978.1
15 19.07 Ю 4 15 км 10/10 600 м
[Sc]
-5.3 -12.7 56 -11 -11 982.3 976.8 -3.2
18 19.07 В 19 н/о н/о -7.9 -10.4 82 -21 -21 979.5 974.0
21 19.07 В 20 н/о н/о -8.7 -10.8 85 -22 -22 978.0 972.6
00 20.07 В 22 <100 м сильная метель 10/9 300 м
[Sc Cs]
-8.2 -10.1 86 -22 -22 977.1 971.7
03 20.07 В 23 <100 м сильная метель 10/6 1500 м
[Sc Cs]
-7.9 -10.1 84 -22 -22 976.4 971.0 -9.0
06 20.07 В 26 <100 м сильная метель 10/8 1500 м
[Sc Cs]
-7.6 -9.5 86 -22 -22 974.2 968.8
09 20.07 В 28 <100 м сильная метель 10/10 600 м
[Sc]
-7.0 -9.4 83 -22 -22 973.2 967.8
12 20.07 В 31 <100 м сильная метель н/о -5.4 -10.2 69 -20 -20 970.8 965.4
15 20.07 В 33 <100 м сильная метель н/о -4.8 -9.2 71 -19 -19 968.1 962.7 -4.5
18 20.07 В 40 н/о н/о -4.2 -7.0 81 -19 -19 964.0 958.6
21 20.07 В 44 н/о н/о -4.7 -6.4 88 -21 -21 961.0 955.6
00 21.07 В 40 н/о н/о -5.7 -7.4 88 -22 -22 963.9 958.5
03 21.07 В 41 <100 м сильная метель 9/9 600 м
[Sc]
-4.9 -7.2 84 -20 -20 965.7 960.3 -8.4
06 21.07 В 35 3000 м метель 9/9 600 м
[Sc]
-4.6 -10.4 64 -19 -19 969.1 963.7
09 21.07 В 34 6000 м метель 9/9 600 м
[Sc]
-4.3 -11.1 59 -18 -18 971.4 966.0
12 21.07 В 33 10 км метель 10/3 1500 м
[Sc As trans]
-4.5 -11.9 56 -18 -18 973.6 968.2
15 21.07 В 31 н/о н/о -5.0 -12.2 57 -19 -19 975.9 970.5 -3.1
18 21.07 В 33 н/о н/о -6.1 -13.2 57 -21 -21 975.8 970.4
21 21.07 В 32 н/о н/о -6.2 -14.7 51 -21 -21 977.0 971.6
06 22.07 Ю 9 30 км 10/8 1500 м
[Sc As trans]
-5.4 -13.4 53 -14 -14 981.2 975.7
09 22.07 В 20 30 км 9/4 1500 м
[Sc As trans]
-4.4 -12.3 54 -16 -16 976.5 971.1
12 22.07 ЮВ 17 3000 м метель 9/1 1500 м
[Sc As trans]
-4.6 -14.4 46 -16 -16 970.4 965.0
15 22.07 ЮВ 23 5000 м метель 10/4 1500 м
[Sc As trans]
-5.2 -10.3 67 -18 -18 966.6 961.2 -1.2
18 22.07 ЮВ 17 н/о н/о -2.3 -12.3 46 -12 -12 969.9 964.5
21 22.07 В 22 н/о н/о -7.1 -8.5 90 -21 -21 971.4 966.0

 

Местоположение метеостанции Casey (Антарктида): широта -66.28 долгота 110.51 высота над уровнем моря 41 м.

В архиве по умолчанию представлена погода в Casey за последнюю неделю. Архивные данные за месяц целиком и за предыдущие месяцы, начиная с января 2011 года, Вы можете получить, выбрав интересующий диапазон дат из раскрывающегося списка и нажав кнопку "Ввод!".


*Определитесь, кто Вы:
робот инопланетянин человек

Внимание! Время в таблицах - всемирное. Для получения местного времени необходимо прибавить поправку, которая в Casey равна 0 ч.

Смотрите также архив погоды в соседних городах и на ближайших метеорологических станциях:

Погода в Casey Skiway South (Антарктида) (12 км)
Погода в Casey (Peterson air) (Антарктида) (46 км)
Погода в Wilkins Runway East (Антарктида) (63 км)
Погода в Casey Snyder Rocks (Антарктида) (126 км)
Погода в Oazic Bangera (Антарктида) (436 км)
Погода в Mirnyj (Антарктида) (776 км)
Погода в Dome C II (Антарктида) (1085 км)
Погода в Vostok (Антарктида) (1361 км)

Пояснения к столбцам:

Ветер - указаны скорость ветра в м/с - средняя за 10 мин, порывы в срок и между сроками (в фигурных скобках) и направление, откуда дует ветер: С - северный, СВ - северо-восточный, В - восточный, ЮВ - юго-восточный, Ю - южный, ЮЗ - юго-западный, З - западный, СЗ - северо-западный.
Видимость - горизонтальная дальность видимости в метрах или километрах. При видимости от 1 до 10 км при отсутствии осадков обычно наблюдается дымка, при ухудшении видимости до 1 км и менее - туман. В сухую погоду видимость может ухудшаться дымом, пылью или мглою.
Явления - указаны атмосферные явления, наблюдавшиеся в срок или в последний час перед сроком; фигурными скобками обозначены явления, наблюдавшиеся между сроками (за 1-3 часа до срока); квадратными скобками обозначены град или гололедные отложения с указанием их диаметра в мм.
Облачность - указаны через наклонную черту общая и нижняя облачность в баллах и высота нижней границы облаков в метрах; квадратными скобками обозначены формы облаков: Ci - перистые, Cs - перисто-слоистые, Cc - перисто-кучевые, Ac - высококучевые, As - высокослоистые, Sc - слоисто-кучевые, Ns - слоисто-дождевые, Cu - кучевые, Cb - кучево-дождевые. Подробнее классификацию облаков см. в Атласе облаков (PDF).
T - Температура воздуха - температура, измеренная на высоте 2 м над землей.
Td - Температура точки росы - температура, при понижении до которой содержащийся в воздухе водяной пар достигнет насыщения.
f - Относительная влажность воздуха - влажноcть воздуха, измеренная на высоте 2 м над землей.
Te - Эффективная температура - температура, которую ощущает одетый по сезону человек в тени. Характеристика душности погоды. При расчете учитывается влияние влажности воздуха и скорости ветра на теплоощущения человека.
Tes - Эффективная температура на солнце - температура, которую ощущает человек, с поправкой на солнечный нагрев. Характеристика знойности погоды. Зависит от высоты солнца над горизонтом, облачности и скорости ветра. Ночью, в пасмурную погоду, а также при ветре 12 м/с и более поправка равна нулю.
P - Атмосферное давление - приведенное к уровню моря атмосферное давление.
Po - Атмосферное давление - измеренное на уровне метеостанции атмосферное давление.
Tmin - Минимальная температура - минимум температуры воздуха на высоте 2 м над землей.
Tmax - Максимальная температура - максимум температуры воздуха на высоте 2 м над землей.
R - Количество осадков - Количество выпавших осадков за период времени, мм. При наведении курсора мыши на число - период времени, за который выпало указанное количество осадков.
R24 - Количество осадков - Количество выпавших осадков за 24 часа, мм.
S - Снежный покров - Высота снежного покрова, см. При наведении курсора мыши на число - состояние снежного покрова и степень покрытия местности в баллах.